[TLELIST] Archives

 

[list_settings.list_name] Current TLEs

July 1st 2010 PST

HST 1 20580U 90037B 10181.21298278 .00000365 00000-0 15108-4 0 5937 2 20580 028.4679 154.8183 0003144 340.4232 019.6272 15.00991485906715 ISS (ZARYA) 1 25544U 98067A 10182.49915706 .00033784 00000-0 25410-3 0 4235 2 25544 051.6469 157.3506 0010071 029.9474 067.1106 15.72159514665721 CXO 1 25867U 99040B 10182.29166667 -.00000265 00000-0 10000-3 0 4831 2 25867 067.2048 052.8759 8191150 275.2999 359.7639 00.37805213 6446 ____________________________________________________________________ These 2-Line ...Continue Reading

[list_settings.list_name] Current TLEs

June 30th 2010 PST

HST 1 20580U 90037B 10181.21298278 .00000365 00000-0 15108-4 0 5937 2 20580 028.4679 154.8183 0003144 340.4232 019.6272 15.00991485906715 ISS (ZARYA) 1 25544U 98067A 10181.48094063 .00014542 00000-0 11243-3 0 4170 2 25544 051.6462 162.5625 0010135 025.6825 064.7247 15.72124385665567 CXO 1 25867U 99040B 10182.29166667 -.00000265 00000-0 10000-3 0 4831 2 25867 067.2048 052.8759 8191150 275.2999 359.7639 00.37805213 6446 ____________________________________________________________________ These 2-Line ...Continue Reading

[list_settings.list_name] Current TLEs

June 29th 2010 PST

HST 1 20580U 90037B 10180.21560439 .00000357 00000-0 14506-4 0 5928 2 20580 028.4679 161.3322 0003140 328.8028 031.2397 15.00991005906561 ISS (ZARYA) 1 25544U 98067A 10180.52838237 .00011392 00000-0 89322-4 0 4100 2 25544 051.6465 167.4369 0009820 024.4729 071.1823 15.72072937665419 CXO 1 25867U 99040B 10179.62500000 -.00000365 00000-0 10000-3 0 4827 2 25867 067.1929 052.9828 8187925 275.2892 356.7904 00.37803574 6437 ____________________________________________________________________ These 2-Line ...Continue Reading

[list_settings.list_name] Current TLEs

June 28th 2010 PST

HST 1 20580U 90037B 10179.08524215 .00000329 00000-0 12319-4 0 5911 2 20580 028.4682 168.7137 0003128 313.8734 046.1634 15.00990403906395 ISS (ZARYA) 1 25544U 98067A 10179.51971042 .00009135 00000-0 72665-4 0 4046 2 25544 051.6464 172.6013 0009722 019.6955 123.6023 15.72040395665250 CXO 1 25867U 99040B 10179.62500000 -.00000365 00000-0 10000-3 0 4827 2 25867 067.1929 052.9828 8187925 275.2892 356.7904 00.37803574 6437 ____________________________________________________________________ These 2-Line ...Continue Reading

[list_settings.list_name] Current TLEs

June 27th 2010 PST

HST 1 20580U 90037B 10178.02137213 .00000322 00000-0 11817-4 0 5906 2 20580 028.4684 175.6594 0003136 303.6438 056.3912 15.00989994906236 ISS (ZARYA) 1 25544U 98067A 10178.50184692 .00007325 00000-0 59268-4 0 3975 2 25544 051.6460 177.8125 0009626 015.3042 123.6999 15.72014075665090 CXO 1 25867U 99040B 10177.00000000 -.00000494 00000-0 10000-3 0 4814 2 25867 067.1808 053.0931 8184942 275.2763 359.4793 00.37805454 6427 ____________________________________________________________________ These 2-Line ...Continue Reading

[list_settings.list_name] Current TLEs

June 26th 2010 PST

HST 1 20580U 90037B 10175.09572488 .00000304 00000-0 10413-4 0 5896 2 20580 028.4685 194.7589 0003204 272.2970 087.7189 15.00988968905795 ISS (ZARYA) 1 25544U 98067A 10177.34902157 .00005543 00000-0 46046-4 0 3891 2 25544 051.6472 183.7143 0009692 010.5030 080.0039 15.71989021664918 CXO 1 25867U 99040B 10177.00000000 -.00000494 00000-0 10000-3 0 4814 2 25867 067.1808 053.0931 8184942 275.2763 359.4793 00.37805454 6427 ____________________________________________________________________ These 2-Line ...Continue Reading

[list_settings.list_name] Current TLEs

June 25th 2010 PST

HST 1 20580U 90037B 10175.09572488 .00000304 00000-0 10413-4 0 5896 2 20580 028.4685 194.7589 0003204 272.2970 087.7189 15.00988968905795 ISS (ZARYA) 1 25544U 98067A 10176.46989968 .00005229 00000-0 43725-4 0 3845 2 25544 051.6466 188.2139 0009437 007.8601 144.2218 15.71976695664775 CXO 1 25867U 99040B 10177.00000000 -.00000494 00000-0 10000-3 0 4814 2 25867 067.1808 053.0931 8184942 275.2763 359.4793 00.37805454 6427 ____________________________________________________________________ These 2-Line ...Continue Reading

[list_settings.list_name] Current TLEs

June 24th 2010 PST

HST 1 20580U 90037B 10175.09572488 .00000304 00000-0 10413-4 0 5896 2 20580 028.4685 194.7589 0003204 272.2970 087.7189 15.00988968905795 ISS (ZARYA) 1 25544U 98067A 10175.51712731 .00005400 00000-0 45024-4 0 3814 2 25544 051.6473 193.0930 0009481 003.6027 153.0233 15.71966335664620 CXO 1 25867U 99040B 10171.70833333 -.00000282 00000-0 10000-3 0 4802 2 25867 067.1539 053.3386 8172370 275.2557 359.1889 00.37806575 6404 ____________________________________________________________________ These 2-Line ...Continue Reading

[list_settings.list_name] Current TLEs

June 23rd 2010 PST

HST 1 20580U 90037B 10173.16745900 .00000341 00000-0 13262-4 0 5888 2 20580 028.4690 207.3457 0003415 249.6459 110.3769 15.00988722905504 ISS (ZARYA) 1 25544U 98067A 10174.17359088 .00005450 00000-0 45430-4 0 3745 2 25544 051.6463 199.9673 0009222 358.4862 109.8878 15.71950172664412 CXO 1 25867U 99040B 10171.70833333 -.00000282 00000-0 10000-3 0 4802 2 25867 067.1539 053.3386 8172370 275.2557 359.1889 00.37806575 6404 ____________________________________________________________________ These 2-Line ...Continue Reading

[list_settings.list_name] Current TLEs

June 22nd 2010 PST

HST 1 20580U 90037B 10173.16745900 .00000341 00000-0 13262-4 0 5888 2 20580 028.4690 207.3457 0003415 249.6459 110.3769 15.00988722905504 ISS (ZARYA) 1 25544U 98067A 10173.34829567 .00005859 00000-0 48497-4 0 3690 2 25544 051.6463 204.1905 0009206 356.0529 118.8326 15.71941568664287 CXO 1 25867U 99040B 10171.70833333 -.00000282 00000-0 10000-3 0 4802 2 25867 067.1539 053.3386 8172370 275.2557 359.1889 00.37806575 6404 ____________________________________________________________________ These 2-Line ...Continue Reading
  • This mailing list is a public mailing list - anyone may join or leave, at any time.
  • This mailing list is announce-only.

International Space Station (ISS) / Hubble Space Telescope (HST) / Chandra X-Ray Observatory Orbital Data via EMAIL

Privacy Policy:

Private list